Weather in Kankan

Guinea     10°23′00″N   9°18′33″W
temp.,
°C
wind,
m/s
gust,
m/s
humid.,
%
clouds,
%
prec.,
mm/h
press.,
hPa
HPBL,
m
9 august, tue
tue900:00+23sw2694100 0.1 1012179
03:00+22sw399592 0.3 1012323
06:00+21w2895100 0.6 1014468
09:00+22wsw3892100 0.0 1014525
12:00+27sw4575100 0.1 1013838
15:00+28w3368100 0.1 10111104
18:00+26wnw2388100 3.1 1011105
21:00+23w2291100 3.4 101319
10 august, wed
wed1000:00+23wsw229597 3.4 101341
03:00+22nw1398100 4.6 1012117
06:00+22wsw3998100 7.9 1013402
09:00+23sw479281 0.0 1014506
12:00+26wsw358096 0.2 1013793
15:00+27w337670 1.1 1010889
18:00+25wnw2389100 7.2 101077
21:00+23wnw2395100 8.2 101282
11 august, thu
thu1100:00+22ssw4898100 10.9 1013371
03:00+21sw31098100 2.8 1012585
06:00+21ssw399891 3.5 1013543
09:00+23sw4892100 0.1 1015589
12:00+27sw4574100 0.6 10131048
15:00+26sw4685100 3.8 1011884
18:00+24sw2692100 6.4 1011348
21:00+22sw2897100 1.3 1014304
12 august, fri
fri1200:00+21wsw3997100 3.3 1015408
03:00+21wsw2998100 0.0 1014457
06:00+21wsw2797100 0.0 1014497
09:00+22wsw389372 0.0 1016643
12:00+26wsw357574 0.1 10151012
15:00+28wsw3570100 0.9 10121249
18:00+25wsw1390100 3.4 1012144
21:00+22wsw2895100 2.9 1014197
13 august, sat
sat1300:00+22wsw41295100 4.9 1015504
03:00+21wsw41196100 0.8 1014699
06:00+21wsw31097100 1.4 1014607
09:00+21wsw3997100 1.6 1016603
12:00+21wsw41097100 3.5 1016570
15:00+21wsw3896100 0.4 1014578
18:00+21wsw2797100 0.4 1014406
21:00+21ssw1598100 0.3 1016288